Powrót do katalogu

COSMOS 1317 DEB

LostHEO
NORAD 14734·DEBRIS·🇷🇺 Russia

Wystrzelony Oct 31, 1981 z Plesetsk Cosmodrome

Loading…

Następne Przeloty (najbliższe 24 godziny)

TLE

NieaktualneSource: Space-Track

Epoka: Oct 27, 2025, 07:24 UTC

1 14734U 81108E   25300.30899178  .00000055  00000-0  00000-0 0  9992
2 14734  72.1277  74.0365 4709127 323.9377  15.4524  2.01758192278953

Śledź COSMOS 1317 DEB w czasie rzeczywistym z AllMySat

Download on the App Store